| time (UTC) | temp F | wind direction | speed MPH | gust MPH | rain 1hr in | rain 24hr in | rain mn in | humidity % | barometer mb |
| 20260904190213 | 79 | 198 | 5.0 | 10.0 | 0.00 | 0.00 | 0.00 | 52 | 1011.2 |
| 20260904185213 | 80 | 207 | 5.0 | 10.0 | 0.00 | 0.00 | 0.00 | 52 | 1011.3 |
| 20260904184708 | 80 | 199 | 6.0 | 10.0 | 0.00 | 0.00 | 0.00 | 51 | 1011.3 |
| 20260904184207 | 80 | 208 | 7.0 | 11.0 | 0.00 | 0.00 | 0.00 | 51 | 1011.4 |
| 20260904183718 | 80 | 205 | 6.0 | 11.0 | 0.00 | 0.00 | 0.00 | 51 | 1011.4 |
| 20260904183214 | 80 | 218 | 6.0 | 10.0 | 0.00 | 0.00 | 0.00 | 51 | 1011.4 |
| 20260904182212 | 81 | 189 | 5.0 | 9.0 | 0.00 | 0.00 | 0.00 | 50 | 1011.2 |
| 20260904181708 | 81 | 211 | 5.0 | 9.0 | 0.00 | 0.00 | 0.00 | 50 | 1011.3 |
| 20260904181207 | 81 | 209 | 4.0 | 9.0 | 0.00 | 0.00 | 0.00 | 50 | 1011.3 |
| 20260904180707 | 82 | 204 | 4.0 | 9.0 | 0.00 | 0.00 | 0.00 | 49 | 1011.3 |
| 20260904180208 | 82 | 178 | 4.0 | 9.0 | 0.00 | 0.00 | 0.00 | 49 | 1011.3 |
| 20260904175716 | 82 | 198 | 4.0 | 9.0 | 0.00 | 0.00 | 0.00 | 49 | 1011.2 |
| 20260904175214 | 82 | 150 | 4.0 | 8.0 | 0.00 | 0.00 | 0.00 | 48 | 1011.1 |
| 20260904174713 | 83 | 215 | 4.0 | 9.0 | 0.00 | 0.00 | 0.00 | 48 | 1011.2 |
| 20260904173711 | 83 | 241 | 4.0 | 9.0 | 0.00 | 0.00 | 0.00 | 47 | 1011.2 |
| 20260904173207 | 83 | 239 | 4.0 | 8.0 | 0.00 | 0.00 | 0.00 | 47 | 1011.3 |
| 20260904172721 | 84 | 209 | 4.0 | 9.0 | 0.00 | 0.00 | 0.00 | 46 | 1011.4 |
| 20260904172215 | 84 | 183 | 4.0 | 9.0 | 0.00 | 0.00 | 0.00 | 46 | 1011.3 |
| 20260904171715 | 84 | 192 | 4.0 | 8.0 | 0.00 | 0.00 | 0.00 | 46 | 1011.3 |
| 20260904170711 | 85 | 190 | 4.0 | 7.0 | 0.00 | 0.00 | 0.00 | 44 | 1011.4 |
| 20260904170208 | 85 | 201 | 4.0 | 7.0 | 0.00 | 0.00 | 0.00 | 44 | 1011.4 |
| 20260904165706 | 85 | 157 | 4.0 | 7.0 | 0.00 | 0.00 | 0.00 | 44 | 1011.3 |
| 20260904165212 | 85 | 188 | 3.0 | 12.0 | 0.00 | 0.00 | 0.00 | 44 | 1011.5 |
| 20260904164718 | 86 | 163 | 3.0 | 12.0 | 0.00 | 0.00 | 0.00 | 43 | 1011.4 |
| 20260904164217 | 86 | 199 | 4.0 | 12.0 | 0.00 | 0.00 | 0.00 | 43 | 1011.5 |
| 20260904163216 | 86 | 206 | 4.0 | 10.0 | 0.00 | 0.00 | 0.00 | 41 | 1011.5 |
| 20260904162706 | 86 | 180 | 4.0 | 10.0 | 0.00 | 0.00 | 0.00 | 42 | 1011.5 |
| 20260904161215 | 87 | 209 | 4.0 | 10.0 | 0.00 | 0.00 | 0.00 | 42 | 1011.7 |
| 20260904160720 | 87 | 190 | 4.0 | 11.0 | 0.00 | 0.00 | 0.00 | 41 | 1011.7 |
| 20260904160235 | 87 | 201 | 5.0 | 11.0 | 0.00 | 0.00 | 0.00 | 41 | 1011.8 |
| 20260904155708 | 87 | 191 | 5.0 | 9.0 | 0.00 | 0.00 | 0.00 | 40 | 1011.9 |
| 20260904155207 | 87 | 192 | 4.0 | 8.0 | 0.00 | 0.00 | 0.00 | 42 | 1011.9 |
| 20260904154716 | 87 | 166 | 4.0 | 8.0 | 0.00 | 0.00 | 0.00 | 40 | 1012.0 |
| 20260904154208 | 87 | 198 | 4.0 | 7.0 | 0.00 | 0.00 | 0.00 | 41 | 1012.0 |
| 20260904153714 | 87 | 157 | 3.0 | 5.0 | 0.00 | 0.00 | 0.00 | 41 | 1012.0 |
| 20260904153208 | 87 | 183 | 2.0 | 5.0 | 0.00 | 0.00 | 0.00 | 42 | 1012.1 |
| 20260904152718 | 87 | 184 | 2.0 | 9.0 | 0.00 | 0.00 | 0.00 | 43 | 1012.2 |
| 20260904152213 | 87 | 149 | 3.0 | 9.0 | 0.00 | 0.00 | 0.00 | 41 | 1012.2 |
| 20260904151710 | 87 | 151 | 3.0 | 9.0 | 0.00 | 0.00 | 0.00 | 40 | 1012.2 |
| 20260904151217 | 88 | 206 | 4.0 | 8.0 | 0.00 | 0.00 | 0.00 | 41 | 1012.3 |
| 20260904150707 | 88 | 159 | 3.0 | 7.0 | 0.00 | 0.00 | 0.00 | 41 | 1012.4 |
| 20260904150215 | 88 | 167 | 3.0 | 11.0 | 0.00 | 0.00 | 0.00 | 40 | 1012.5 |
| 20260904145717 | 88 | 192 | 3.0 | 11.0 | 0.00 | 0.00 | 0.00 | 41 | 1012.5 |
| 20260904145217 | 88 | 209 | 5.0 | 12.0 | 0.00 | 0.00 | 0.00 | 40 | 1012.6 |
| 20260904144705 | 88 | 224 | 6.0 | 12.0 | 0.00 | 0.00 | 0.00 | 40 | 1012.7 |
| 20260904144211 | 89 | 175 | 5.0 | 12.0 | 0.00 | 0.00 | 0.00 | 40 | 1012.8 |
| 20260904143210 | 89 | 168 | 3.0 | 11.0 | 0.00 | 0.00 | 0.00 | 40 | 1012.9 |
| 20260904142727 | 89 | 163 | 3.0 | 14.0 | 0.00 | 0.00 | 0.00 | 40 | 1013.0 |
| 20260904142222 | 89 | 207 | 5.0 | 14.0 | 0.00 | 0.00 | 0.00 | 40 | 1013.1 |
| 20260904141712 | 89 | 150 | 6.0 | 14.0 | 0.00 | 0.00 | 0.00 | 40 | 1013.3 |
| 20260904141206 | 89 | 207 | 6.0 | 14.0 | 0.00 | 0.00 | 0.00 | 40 | 1013.4 |
| 20260904140730 | 89 | 166 | 5.0 | 13.0 | 0.00 | 0.00 | 0.00 | 40 | 1013.3 |
| 20260904140210 | 89 | 160 | 4.0 | 9.0 | 0.00 | 0.00 | 0.00 | 40 | 1013.4 |
| 20260904135713 | 88 | 122 | 4.0 | 9.0 | 0.00 | 0.00 | 0.00 | 41 | 1013.5 |
| 20260904135212 | 88 | 117 | 4.0 | 10.0 | 0.00 | 0.00 | 0.00 | 40 | 1013.5 |
| 20260904134707 | 87 | 82 | 4.0 | 12.0 | 0.00 | 0.00 | 0.00 | 42 | 1013.6 |
| 20260904134220 | 87 | 152 | 5.0 | 12.0 | 0.00 | 0.00 | 0.00 | 41 | 1013.6 |
| 20260904133711 | 87 | 150 | 6.0 | 12.0 | 0.00 | 0.00 | 0.00 | 41 | 1013.7 |
| 20260904132706 | 88 | 159 | 5.0 | 9.0 | 0.00 | 0.00 | 0.00 | 41 | 1013.7 |
| 20260904132215 | 87 | 162 | 4.0 | 11.0 | 0.00 | 0.00 | 0.00 | 42 | 1013.9 |
| 20260904131214 | 87 | 177 | 5.0 | 11.0 | 0.00 | 0.00 | 0.00 | 40 | 1014.1 |
| 20260904130709 | 87 | 161 | 5.0 | 11.0 | 0.00 | 0.00 | 0.00 | 41 | 1014.1 |
| 20260904130235 | 87 | 227 | 5.0 | 11.0 | 0.00 | 0.00 | 0.00 | 40 | 1014.2 |
| 20260904124712 | 87 | 175 | 4.0 | 11.0 | 0.00 | 0.00 | 0.00 | 41 | 1014.4 |
| 20260904123718 | 87 | 153 | 5.0 | 12.0 | 0.00 | 0.00 | 0.00 | 42 | 1014.6 |
| 20260904123214 | 87 | 140 | 6.0 | 12.0 | 0.00 | 0.00 | 0.00 | 41 | 1014.6 |
| 20260904122734 | 87 | 149 | 6.0 | 10.0 | 0.00 | 0.00 | 0.00 | 41 | 1014.6 |
| 20260904122207 | 86 | 194 | 3.0 | 7.0 | 0.00 | 0.00 | 0.00 | 42 | 1014.7 |
| 20260904121214 | 86 | 184 | 3.0 | 7.0 | 0.00 | 0.00 | 0.00 | 43 | 1014.9 |
| 20260904120719 | 86 | 213 | 4.0 | 7.0 | 0.00 | 0.00 | 0.00 | 41 | 1015.0 |
| 20260904115713 | 86 | 193 | 3.0 | 6.0 | 0.00 | 0.00 | 0.00 | 41 | 1015.2 |
| 20260904114213 | 87 | 224 | 4.0 | 12.0 | 0.00 | 0.00 | 0.00 | 42 | 1015.4 |
| 20260904113718 | 87 | 217 | 4.0 | 11.0 | 0.00 | 0.00 | 0.00 | 39 | 1015.5 |
| 20260904113209 | 87 | 187 | 4.0 | 11.0 | 0.00 | 0.00 | 0.00 | 40 | 1015.6 |
| 20260904112711 | 87 | 277 | 5.0 | 13.0 | 0.00 | 0.00 | 0.00 | 41 | 1015.6 |
| 20260904112219 | 87 | 250 | 6.0 | 20.0 | 0.00 | 0.00 | 0.00 | 40 | 1015.7 |
| 20260904111710 | 86 | 263 | 9.0 | 20.0 | 0.00 | 0.00 | 0.00 | 40 | 1015.8 |
| 20260904111219 | 86 | 294 | 11.0 | 20.0 | 0.00 | 0.00 | 0.00 | 40 | 1015.9 |
| 20260904110718 | 86 | 339 | 10.0 | 18.0 | 0.00 | 0.00 | 0.00 | 40 | 1016.1 |
| 20260904110218 | 86 | 289 | 8.0 | 14.0 | 0.00 | 0.00 | 0.00 | 42 | 1016.2 |
| 20260904105716 | 85 | 313 | 7.0 | 14.0 | 0.00 | 0.00 | 0.00 | 42 | 1016.2 |
| 20260904105210 | 85 | 294 | 7.0 | 15.0 | 0.00 | 0.00 | 0.00 | 42 | 1016.3 |
| 20260904104713 | 85 | 296 | 8.0 | 16.0 | 0.00 | 0.00 | 0.00 | 42 | 1016.4 |
| 20260904104215 | 85 | 252 | 9.0 | 16.0 | 0.00 | 0.00 | 0.00 | 43 | 1016.4 |
| 20260904103216 | 86 | 306 | 8.0 | 19.0 | 0.00 | 0.00 | 0.00 | 41 | 1016.5 |
| 20260904102719 | 85 | 315 | 9.0 | 19.0 | 0.00 | 0.00 | 0.00 | 43 | 1016.6 |
| 20260904102217 | 85 | 252 | 9.0 | 19.0 | 0.00 | 0.00 | 0.00 | 43 | 1016.6 |
| 20260904101719 | 85 | 254 | 6.0 | 11.0 | 0.00 | 0.00 | 0.00 | 42 | 1016.8 |
| 20260904101218 | 85 | 313 | 5.0 | 12.0 | 0.00 | 0.00 | 0.00 | 42 | 1016.8 |
| 20260904100719 | 84 | 329 | 5.0 | 12.0 | 0.00 | 0.00 | 0.00 | 42 | 1016.8 |
| 20260904095707 | 84 | 297 | 6.0 | 16.0 | 0.00 | 0.00 | 0.00 | 43 | 1016.8 |
| 20260904095216 | 83 | 351 | 8.0 | 17.0 | 0.00 | 0.00 | 0.00 | 44 | 1016.9 |
| 20260904094717 | 83 | 321 | 10.0 | 17.0 | 0.00 | 0.00 | 0.00 | 43 | 1016.9 |
| 20260904094208 | 83 | 343 | 10.0 | 17.0 | 0.00 | 0.00 | 0.00 | 43 | 1017.0 |
| 20260904093737 | 83 | 355 | 11.0 | 18.0 | 0.00 | 0.00 | 0.00 | 45 | 1017.0 |
| 20260904092712 | 83 | 316 | 7.0 | 17.0 | 0.00 | 0.00 | 0.00 | 45 | 1017.1 |
| 20260904092211 | 83 | 337 | 8.0 | 19.0 | 0.00 | 0.00 | 0.00 | 45 | 1017.2 |
| 20260904091713 | 82 | 355 | 10.0 | 21.0 | 0.00 | 0.00 | 0.00 | 45 | 1017.2 |
| 20260904091206 | 82 | 292 | 11.0 | 21.0 | 0.00 | 0.00 | 0.00 | 45 | 1017.3 |
| 20260904090712 | 82 | 313 | 10.0 | 21.0 | 0.00 | 0.00 | 0.00 | 45 | 1017.3 |
| 20260904090207 | 81 | 327 | 10.0 | 17.0 | 0.00 | 0.00 | 0.00 | 46 | 1017.4 |
| 20260904085712 | 81 | 315 | 11.0 | 17.0 | 0.00 | 0.00 | 0.00 | 46 | 1017.4 |
| 20260904084718 | 81 | 294 | 9.0 | 20.0 | 0.00 | 0.00 | 0.00 | 47 | 1017.7 |
| 20260904084218 | 80 | 281 | 11.0 | 25.0 | 0.00 | 0.00 | 0.00 | 47 | 1017.7 |
| 20260904083714 | 80 | 261 | 13.0 | 25.0 | 0.00 | 0.00 | 0.00 | 47 | 1017.7 |
| 20260904083217 | 81 | 271 | 12.0 | 25.0 | 0.00 | 0.00 | 0.00 | 46 | 1017.7 |
| 20260904082717 | 81 | 304 | 10.0 | 20.0 | 0.00 | 0.00 | 0.00 | 47 | 1017.8 |
| 20260904082222 | 80 | 295 | 8.0 | 16.0 | 0.00 | 0.00 | 0.00 | 48 | 1017.9 |
| 20260904081837 | 80 | 342 | 8.0 | 16.0 | 0.00 | 0.00 | 0.00 | 49 | 1017.9 |
| 20260904081213 | 80 | 264 | 9.0 | 16.0 | 0.00 | 0.00 | 0.00 | 50 | 1017.9 |
| 20260904080710 | 79 | 281 | 8.0 | 16.0 | 0.00 | 0.00 | 0.00 | 50 | 1017.9 |
| 20260904080211 | 79 | 226 | 8.0 | 16.0 | 0.00 | 0.00 | 0.00 | 51 | 1018.1 |
| 20260904075707 | 78 | 309 | 7.0 | 16.0 | 0.00 | 0.00 | 0.00 | 51 | 1018.0 |
| 20260904075215 | 78 | 313 | 6.0 | 14.0 | 0.00 | 0.00 | 0.00 | 53 | 1018.1 |
| 20260904074715 | 77 | 281 | 5.0 | 11.0 | 0.00 | 0.00 | 0.00 | 54 | 1018.2 |
| 20260904074218 | 76 | 265 | 4.0 | 11.0 | 0.00 | 0.00 | 0.00 | 57 | 1018.3 |
| 20260904073719 | 76 | 272 | 5.0 | 11.0 | 0.00 | 0.00 | 0.00 | 56 | 1018.2 |
| 20260904073209 | 75 | 320 | 5.0 | 11.0 | 0.00 | 0.00 | 0.00 | 56 | 1018.2 |
| 20260904072705 | 75 | 315 | 5.0 | 11.0 | 0.00 | 0.00 | 0.00 | 57 | 1018.2 |
| 20260904072209 | 75 | 284 | 6.0 | 10.0 | 0.00 | 0.00 | 0.00 | 57 | 1018.2 |
| 20260904071712 | 74 | 267 | 5.0 | 11.0 | 0.00 | 0.00 | 0.00 | 58 | 1018.2 |
| 20260904071211 | 74 | 9 | 6.0 | 11.0 | 0.00 | 0.00 | 0.00 | 58 | 1018.2 |
| 20260904065707 | 73 | 287 | 6.0 | 17.0 | 0.00 | 0.00 | 0.00 | 59 | 1018.3 |
| 20260904065217 | 73 | 325 | 6.0 | 12.0 | 0.00 | 0.00 | 0.00 | 61 | 1018.3 |
| 20260904064708 | 73 | 253 | 8.0 | 13.0 | 0.00 | 0.00 | 0.00 | 61 | 1018.3 |
| 20260904064211 | 73 | 254 | 9.0 | 14.0 | 0.00 | 0.00 | 0.00 | 61 | 1018.3 |
| 20260904063716 | 72 | 242 | 9.0 | 14.0 | 0.00 | 0.00 | 0.00 | 62 | 1018.3 |
| 20260904063208 | 72 | 261 | 9.0 | 14.0 | 0.00 | 0.00 | 0.00 | 63 | 1018.3 |
| 20260904062717 | 71 | 241 | 7.0 | 14.0 | 0.00 | 0.00 | 0.00 | 64 | 1018.3 |
| 20260904061710 | 70 | 246 | 5.0 | 9.0 | 0.00 | 0.00 | 0.00 | 67 | 1018.2 |
| 20260904061215 | 70 | 236 | 5.0 | 9.0 | 0.00 | 0.00 | 0.00 | 68 | 1018.2 |
| 20260904060737 | 69 | 257 | 4.0 | 8.0 | 0.00 | 0.00 | 0.00 | 69 | 1018.1 |
| 20260904060218 | 69 | 272 | 4.0 | 8.0 | 0.00 | 0.00 | 0.00 | 71 | 1018.1 |
| 20260904054706 | 68 | 251 | 3.0 | 7.0 | 0.00 | 0.00 | 0.00 | 74 | 1018.1 |
| 20260904054224 | 68 | 239 | 4.0 | 7.0 | 0.00 | 0.00 | 0.00 | 74 | 1018.1 |
| 20260904053715 | 68 | 252 | 4.0 | 7.0 | 0.00 | 0.00 | 0.00 | 75 | 1018.1 |
| 20260904052712 | 68 | 236 | 4.0 | 6.0 | 0.00 | 0.00 | 0.00 | 76 | 1018.0 |
| 20260904052211 | 68 | 250 | 3.0 | 5.0 | 0.00 | 0.00 | 0.00 | 76 | 1018.0 |
| 20260904051712 | 68 | 254 | 2.0 | 5.0 | 0.00 | 0.00 | 0.00 | 76 | 1018.0 |
| 20260904051207 | 68 | 259 | 2.0 | 5.0 | 0.00 | 0.00 | 0.00 | 75 | 1018.0 |
| 20260904050712 | 67 | 236 | 2.0 | 4.0 | 0.00 | 0.00 | 0.00 | 75 | 1018.0 |
| 20260904050225 | 67 | 260 | 2.0 | 4.0 | 0.00 | 0.00 | 0.00 | 74 | 1018.1 |
| 20260904045719 | 67 | 243 | 2.0 | 4.0 | 0.00 | 0.00 | 0.00 | 73 | 1018.1 |
| 20260904044716 | 68 | 208 | 1.0 | 3.0 | 0.00 | 0.00 | 0.00 | 73 | 1018.0 |
| 20260904043720 | 68 | 208 | 1.0 | 3.0 | 0.00 | 0.00 | 0.00 | 72 | 1017.9 |
| 20260904043219 | 68 | 208 | 1.0 | 3.0 | 0.00 | 0.00 | 0.00 | 71 | 1018.0 |
| 20260904042718 | 68 | 207 | 1.0 | 3.0 | 0.00 | 0.00 | 0.00 | 71 | 1017.9 |
| 20260904042210 | 68 | 209 | 1.0 | 3.0 | 0.00 | 0.00 | 0.00 | 71 | 1017.9 |
| 20260904041710 | 68 | 209 | 1.0 | 3.0 | 0.00 | 0.00 | 0.00 | 71 | 1017.9 |
| 20260904041207 | 68 | 209 | 1.0 | 2.0 | 0.00 | 0.00 | 0.00 | 70 | 1018.0 |
| 20260904040718 | 68 | 188 | 0.0 | 2.0 | 0.00 | 0.00 | 0.00 | 70 | 1018.0 |
| 20260904040206 | 68 | 188 | 1.0 | 2.0 | 0.00 | 0.00 | 0.00 | 69 | 1018.0 |
| 20260904035711 | 68 | 217 | 1.0 | 3.0 | 0.00 | 0.00 | 0.00 | 69 | 1018.0 |
| 20260904035215 | 68 | 217 | 1.0 | 3.0 | 0.00 | 0.00 | 0.00 | 69 | 1018.0 |
| 20260904034712 | 68 | 239 | 1.0 | 4.0 | 0.00 | 0.00 | 0.00 | 69 | 1018.0 |
| 20260904034213 | 68 | 247 | 2.0 | 4.0 | 0.00 | 0.00 | 0.00 | 69 | 1018.0 |
| 20260904033714 | 68 | 267 | 2.0 | 6.0 | 0.00 | 0.00 | 0.00 | 69 | 1018.0 |
| 20260904032211 | 68 | 261 | 3.0 | 4.0 | 0.00 | 0.00 | 0.00 | 70 | 1017.7 |
| 20260904031705 | 68 | 255 | 2.0 | 5.0 | 0.00 | 0.00 | 0.00 | 70 | 1017.7 |
| 20260904031216 | 67 | 254 | 2.0 | 6.0 | 0.00 | 0.00 | 0.00 | 70 | 1017.8 |
| 20260904030718 | 67 | 259 | 3.0 | 7.0 | 0.00 | 0.00 | 0.00 | 70 | 1017.8 |
| 20260904030212 | 67 | 252 | 4.0 | 7.0 | 0.00 | 0.00 | 0.00 | 71 | 1017.9 |
| 20260904025712 | 67 | 257 | 4.0 | 7.0 | 0.00 | 0.00 | 0.00 | 72 | 1017.9 |
| 20260904024710 | 66 | 254 | 3.0 | 6.0 | 0.00 | 0.00 | 0.00 | 73 | 1017.9 |
| 20260904024218 | 66 | 263 | 2.0 | 4.0 | 0.00 | 0.00 | 0.00 | 74 | 1017.8 |
| 20260904023711 | 66 | 267 | 1.0 | 3.0 | 0.00 | 0.00 | 0.00 | 75 | 1017.8 |
| 20260904023219 | 66 | 256 | 0.0 | 2.0 | 0.00 | 0.00 | 0.00 | 75 | 1017.9 |
| 20260904022719 | 66 | 256 | 0.0 | 2.0 | 0.00 | 0.00 | 0.00 | 75 | 1017.9 |
| 20260904022206 | 66 | 256 | 1.0 | 2.0 | 0.00 | 0.00 | 0.00 | 75 | 1017.9 |
| 20260904021713 | 66 | 256 | 1.0 | 1.0 | 0.00 | 0.00 | 0.00 | 76 | 1017.8 |
| 20260904020715 | 66 | 256 | 0.0 | 0.0 | 0.00 | 0.00 | 0.00 | 75 | 1017.9 |
| 20260904015711 | 66 | 256 | 0.0 | 2.0 | 0.00 | 0.00 | 0.00 | 75 | 1018.0 |
| 20260904015212 | 66 | 256 | 0.0 | 2.0 | 0.00 | 0.00 | 0.00 | 75 | 1018.0 |
| 20260904014706 | 66 | 256 | 1.0 | 2.0 | 0.00 | 0.00 | 0.00 | 76 | 1018.0 |
| 20260904014208 | 66 | 256 | 1.0 | 2.0 | 0.00 | 0.00 | 0.00 | 75 | 1018.0 |
| 20260904013708 | 66 | 256 | 1.0 | 2.0 | 0.00 | 0.00 | 0.00 | 75 | 1018.1 |
| 20260904013208 | 66 | 256 | 1.0 | 3.0 | 0.00 | 0.00 | 0.00 | 75 | 1018.1 |
| 20260904012705 | 66 | 256 | 1.0 | 3.0 | 0.00 | 0.00 | 0.00 | 75 | 1018.2 |
| 20260904012209 | 66 | 256 | 2.0 | 3.0 | 0.00 | 0.00 | 0.00 | 75 | 1018.3 |
| 20260904011711 | 66 | 254 | 2.0 | 2.0 | 0.00 | 0.00 | 0.00 | 75 | 1018.2 |
| 20260904011207 | 66 | 307 | 1.0 | 2.0 | 0.00 | 0.00 | 0.00 | 74 | 1018.2 |
| 20260904005716 | 66 | 307 | 0.0 | 3.0 | 0.00 | 0.00 | 0.00 | 74 | 1018.3 |
| 20260904005211 | 66 | 307 | 0.0 | 3.0 | 0.00 | 0.00 | 0.00 | 73 | 1018.4 |
| 20260904004707 | 66 | 307 | 0.0 | 6.0 | 0.00 | 0.00 | 0.00 | 73 | 1018.4 |
| 20260904004217 | 66 | 112 | 1.0 | 6.0 | 0.00 | 0.00 | 0.00 | 73 | 1018.4 |
| 20260904003710 | 66 | 319 | 2.0 | 6.0 | 0.00 | 0.00 | 0.00 | 73 | 1018.4 |
| 20260904002717 | 66 | 116 | 1.0 | 5.0 | 0.00 | 0.00 | 0.00 | 73 | 1018.4 |
| 20260904002213 | 66 | 20 | 2.0 | 5.0 | 0.00 | 0.00 | 0.00 | 73 | 1018.3 |
| 20260904001719 | 66 | 317 | 1.0 | 5.0 | 0.00 | 0.00 | 0.00 | 73 | 1018.4 |
| 20260904001206 | 67 | 154 | 1.0 | 5.0 | 0.00 | 0.00 | 0.00 | 73 | 1018.4 |
| 20260904000711 | 67 | 156 | 1.0 | 5.0 | 0.00 | 0.00 | 0.00 | 73 | 1018.4 |
| 20260904000213 | 67 | 131 | 1.0 | 3.0 | 0.00 | 0.00 | 0.00 | 73 | 1018.4 |
| 20260903234713 | 67 | 290 | 1.0 | 3.0 | 0.00 | 0.00 | 0.00 | 72 | 1018.5 |
| 20260903234218 | 67 | 252 | 1.0 | 3.0 | 0.00 | 0.00 | 0.00 | 72 | 1018.5 |
| 20260903233716 | 67 | 73 | 1.0 | 3.0 | 0.00 | 0.00 | 0.00 | 71 | 1018.6 |
| 20260903233223 | 67 | 73 | 0.0 | 3.0 | 0.00 | 0.00 | 0.00 | 70 | 1018.5 |
| 20260903232710 | 67 | 73 | 0.0 | 3.0 | 0.00 | 0.00 | 0.00 | 70 | 1018.6 |
| 20260903231715 | 67 | 73 | 2.0 | 4.0 | 0.00 | 0.00 | 0.00 | 70 | 1018.6 |
| 20260903231205 | 67 | 106 | 2.0 | 4.0 | 0.00 | 0.00 | 0.00 | 70 | 1018.7 |
| 20260903230238 | 67 | 90 | 1.0 | 3.0 | 0.00 | 0.00 | 0.00 | 70 | 1018.8 |
| 20260903225719 | 67 | 122 | 1.0 | 3.0 | 0.00 | 0.00 | 0.00 | 70 | 1018.7 |
| 20260903225216 | 67 | 119 | 1.0 | 4.0 | 0.00 | 0.00 | 0.00 | 70 | 1018.9 |
| 20260903224209 | 68 | 211 | 1.0 | 4.0 | 0.00 | 0.00 | 0.00 | 69 | 1018.9 |
| 20260903223719 | 68 | 80 | 1.0 | 3.0 | 0.00 | 0.00 | 0.00 | 68 | 1018.8 |
| 20260903223220 | 68 | 61 | 0.0 | 0.0 | 0.00 | 0.00 | 0.00 | 68 | 1018.8 |
| 20260903222714 | 68 | 27 | 0.0 | 0.0 | 0.00 | 0.00 | 0.00 | 67 | 1018.9 |
| 20260903222215 | 68 | 27 | 0.0 | 2.0 | 0.00 | 0.00 | 0.00 | 67 | 1018.9 |
| 20260903221719 | 69 | 27 | 0.0 | 3.0 | 0.00 | 0.00 | 0.00 | 67 | 1018.8 |
| 20260903221220 | 69 | 348 | 1.0 | 3.0 | 0.00 | 0.00 | 0.00 | 66 | 1018.9 |
| 20260903220712 | 69 | 0 | 1.0 | 4.0 | 0.00 | 0.00 | 0.00 | 66 | 1018.9 |
| 20260903215712 | 69 | 0 | 2.0 | 5.0 | 0.00 | 0.00 | 0.00 | 66 | 1019.0 |
| 20260903215207 | 69 | 328 | 3.0 | 5.0 | 0.00 | 0.00 | 0.00 | 65 | 1019.1 |
| 20260903214714 | 69 | 320 | 3.0 | 9.0 | 0.00 | 0.00 | 0.00 | 65 | 1019.1 |
| 20260903214205 | 70 | 329 | 4.0 | 9.0 | 0.00 | 0.00 | 0.00 | 65 | 1019.1 |
| 20260903212714 | 70 | 329 | 5.0 | 11.0 | 0.00 | 0.00 | 0.00 | 63 | 1018.9 |
| 20260903212219 | 71 | 313 | 6.0 | 11.0 | 0.00 | 0.00 | 0.00 | 62 | 1018.8 |
| 20260903211719 | 71 | 331 | 6.0 | 12.0 | 0.00 | 0.00 | 0.00 | 62 | 1018.9 |
| 20260903210717 | 72 | 335 | 6.0 | 12.0 | 0.00 | 0.00 | 0.00 | 60 | 1018.9 |
| 20260903210212 | 72 | 327 | 6.0 | 13.0 | 0.00 | 0.00 | 0.00 | 59 | 1018.8 |
| 20260903205707 | 73 | 336 | 6.0 | 13.0 | 0.00 | 0.00 | 0.00 | 58 | 1018.8 |
| 20260903205215 | 73 | 342 | 7.0 | 13.0 | 0.00 | 0.00 | 0.00 | 58 | 1018.7 |
| 20260903204725 | 73 | 9 | 7.0 | 16.0 | 0.00 | 0.00 | 0.00 | 57 | 1018.8 |
| 20260903204206 | 73 | 355 | 8.0 | 16.0 | 0.00 | 0.00 | 0.00 | 56 | 1018.6 |
| 20260903203215 | 74 | 292 | 9.0 | 17.0 | 0.00 | 0.00 | 0.00 | 55 | 1018.5 |
| 20260903202709 | 74 | 287 | 8.0 | 17.0 | 0.00 | 0.00 | 0.00 | 55 | 1018.4 |
| 20260903202218 | 74 | 283 | 8.0 | 17.0 | 0.00 | 0.00 | 0.00 | 54 | 1018.3 |
| 20260903201707 | 74 | 286 | 7.0 | 14.0 | 0.00 | 0.00 | 0.00 | 54 | 1018.3 |
| 20260903201214 | 74 | 314 | 7.0 | 14.0 | 0.00 | 0.00 | 0.00 | 53 | 1018.3 |
| 20260903200715 | 74 | 303 | 6.0 | 12.0 | 0.00 | 0.00 | 0.00 | 53 | 1018.3 |
| 20260903200241 | 74 | 343 | 5.0 | 12.0 | 0.00 | 0.00 | 0.00 | 54 | 1018.2 |
| 20260903195710 | 74 | 288 | 5.0 | 12.0 | 0.00 | 0.00 | 0.00 | 53 | 1018.2 |
| 20260903195220 | 74 | 327 | 5.0 | 12.0 | 0.00 | 0.00 | 0.00 | 53 | 1018.1 |
| 20260903194716 | 74 | 324 | 5.0 | 12.0 | 0.00 | 0.00 | 0.00 | 53 | 1018.1 |
| 20260903193213 | 74 | 299 | 5.0 | 10.0 | 0.00 | 0.00 | 0.00 | 52 | 1018.1 |
| 20260903192705 | 74 | 330 | 4.0 | 9.0 | 0.00 | 0.00 | 0.00 | 52 | 1018.0 |